Flag for Germany Weather past 2 weeks in Meiningen, Thuringia, Germany

Now
64 °F

Overcast.


Feels Like: 64 °F
Forecast: 52 / 63 °F
Wind: 3 mph from Southwest

Location: Meiningen

Current Time: Aug 30, 2014 at 2:35:27 PM

Latest Report: Aug 30, 2014 at 2:00 PM


Visibility: 34 mi

Pressure: 30.05 "Hg

Humidity: 64%

Dew point: 52 °F

Location of MeiningenLocation

Historic Weather in Meiningen — Graph

°F

Meiningen temperature yesterday

Maximum temperature yesterday: 70 °F (at 5:00 PM)
Minimum temperature yesterday: 54 °F (at 6:00 AM)
Average temperature yesterday: 62 °F

Past Weeks' High & Low Weather Summary

 TemperatureHumidityPressure
High70 °F (Aug 29, 5:00 PM)98% (Aug 19, 8:00 AM)30.13 "Hg (Aug 19, 8:00 AM)
Low41 °F (Aug 22, 6:00 AM)35% (Aug 22, 4:00 PM)29.68 "Hg (Aug 26, 9:00 AM)
Average55 °F77%29.96 "Hg
* Reported Aug 15 1:00 PM — Aug 30 1:00 PM, Meiningen, Weather by CustomWeather, © 2014

Note: Actual official high and low records may vary slightly from our data, if they occured in-between our weather recording intervals... More about our weather records

Advertising

Meiningen weather history for previous 24 hours

 ConditionsComfort  
Time TempWeatherWind HumidityBarometerVisibility
1:00 PM
Aug 30
65 °FOvercast.5 mph61%30.05 "Hg34 mi
12:00 PM63 °FOvercast.3 mph65%30.06 "Hg31 mi
10:00 AM62 °FOvercast.2 mph77%30.06 "Hg19 mi
9:00 AM58 °FFog.2 mph92%30.07 "Hg16 mi
8:00 AM58 °FFog.2 mph86%30.06 "Hg16 mi
7:00 AM56 °FFog.3 mph89%30.06 "Hg16 mi
6:00 AM56 °FFog.2 mph93%30.06 "Hg9 mi
4:00 AM57 °FOvercast.1 mph97%30.04 "Hg11 mi
3:00 AM57 °FOvercast.1 mph97%30.04 "Hg0 mi
2:00 AM58 °FOvercast.1 mph96%30.04 "Hg7 mi
1:00 AM58 °FRain. Low clouds.3 mph94%30.04 "Hg1 mi
12:00 AM58 °FDrizzle. Overcast.3 mph90%30.03 "Hg15 mi
9:00 PM
Aug 29
64 °FOvercast.2 mph66%29.99 "Hg43 mi
8:00 PM66 °FOvercast.1 mph66%29.97 "Hg40 mi
7:00 PM69 °FPartly sunny.2 mph58%29.96 "Hg43 mi
6:00 PM70 °FScattered clouds.2 mph58%29.96 "Hg31 mi
5:00 PM70 °FScattered clouds.3 mph49%29.96 "Hg34 mi
4:00 PM70 °FScattered clouds.3 mph53%29.98 "Hg25 mi
3:00 PM69 °FPartly sunny.2 mph57%29.98 "Hg22 mi
2:00 PM66 °FPartly sunny.2 mph73%29.99 "Hg11 mi
Weather by CustomWeather, © 2014

See weather overviewHow to use our weather pages